Probability
2 4 7 7 5 5 5 5 4 3 3 3 3 3 3 3 3 3 1 0 0 0 0 0 0 0 0 0 0 0 0 0 0 0 0 0 1 1 1 0 0 0 0
4 6 8 8 6 5 6 5 4 3 3 3 3 4 3 3 3 3 2 1 0 0 0 0 0 0 0 0 0 0 0 0 0 0 0 0 0 0 0 0 0 0 0
7 8 9 7 6 6 6 6 5 4 3 3 4 4 3 3 3 4 4 3 1 0 0 0 0 0 0 0 0 0 0 0 0 0 0 0 0 0 0 0 0 0 0
7 8 8 7 6 6 6 6 6 5 4 4 4 4 3 2 3 4 4 4 2 1 0 0 0 0 0 0 0 0 0 0 0 0 0 0 0 0 0 1 1 0 0
6 6 6 7 7 7 7 6 6 6 5 5 5 5 4 2 2 2 3 4 4 3 2 1 1 1 0 0 0 0 0 0 0 0 0 0 0 0 0 1 2 1 0
5 5 5 7 8 7 6 6 6 6 6 6 6 6 5 4 3 2 2 4 5 5 4 3 2 1 1 0 0 0 0 0 0 0 0 0 0 0 0 2 2 1 0
4 4 5 6 7 7 6 5 5 6 6 7 7 7 6 5 3 1 2 3 5 5 4 3 3 2 2 1 1 0 0 0 0 0 0 0 0 0 1 2 3 1 0
5 6 6 7 6 6 5 5 4 5 6 6 7 8 7 6 3 2 2 3 3 3 3 3 3 3 3 3 2 1 0 0 0 0 0 0 0 1 1 3 2 1 0
8 8 8 6 6 5 4 4 3 4 5 5 5 6 6 6 5 3 3 3 2 1 1 2 3 3 3 3 2 1 0 0 0 0 0 0 1 2 3 2 1 0 0
9 9 8 6 4 4 3 3 3 3 4 4 4 4 4 5 6 5 5 4 3 2 1 2 2 3 3 3 2 1 0 0 0 0 0 0 1 2 3 2 1 0 0
7 7 7 5 4 3 3 3 3 3 3 3 3 3 3 4 5 5 4 4 5 4 3 2 2 2 2 1 1 0 0 0 0 0 0 0 1 1 1 1 0 0 0
6 6 7 6 4 3 2 3 3 3 3 3 3 3 3 3 4 4 3 3 4 4 3 2 1 1 1 0 0 0 0 0 0 0 0 0 0 0 0 0 0 0 0
5 6 6 6 5 3 2 3 3 3 3 3 3 3 3 3 3 3 2 1 2 2 1 1 0 0 0 0 0 0 0 0 0 0 0 1 1 1 1 0 1 1 0
4 5 5 5 5 3 2 3 3 3 3 3 3 3 3 3 3 3 2 1 1 0 0 0 0 0 0 0 0 0 0 0 0 0 0 1 2 2 2 2 2 3 2
4 4 3 3 4 4 2 3 3 3 3 3 3 3 3 3 3 3 3 2 1 0 0 0 0 0 0 0 0 0 0 0 0 0 0 0 1 2 3 2 3 4 4
3 3 3 3 3 3 2 3 3 3 3 3 3 3 3 3 3 3 3 2 1 0 0 0 0 0 0 0 0 0 0 0 0 0 0 0 0 1 2 1 1 2 3
3 3 3 3 3 2 2 3 3 3 3 3 3 3 3 3 3 3 3 2 1 0 0 0 0 0 0 0 0 0 0 0 0 0 0 0 0 0 0 0 0 1 2
3 3 3 3 3 2 1 2 3 3 3 3 3 3 3 3 3 3 3 1 0 0 0 0 0 0 0 0 0 0 0 0 0 0 0 0 0 0 0 0 0 1 2
3 3 3 3 3 2 1 2 3 3 3 3 3 3 3 3 3 3 2 1 0 0 0 0 0 0 0 0 0 0 0 0 0 0 0 0 0 0 0 0 0 0 1
3 3 3 3 1 1 1 2 3 3 3 3 3 3 3 3 3 3 2 1 0 0 0 0 0 0 0 0 0 0 0 0 0 0 0 0 0 0 0 0 0 0 0
1 2 2 2 1 0 0 1 1 1 1 2 3 3 3 3 3 3 2 1 0 0 0 0 0 0 1 1 1 0 0 0 0 0 0 0 0 0 0 0 0 0 0
0 1 1 1 0 0 0 0 0 0 0 1 2 3 2 3 3 3 2 1 0 0 0 0 0 0 1 2 1 0 0 0 0 0 0 0 0 0 0 0 0 0 0
1 0 0 0 0 1 2 1 1 0 0 0 1 2 3 3 3 3 2 1 0 0 0 0 0 0 0 1 1 0 0 0 0 0 0 0 0 0 0 0 0 0 0
2 1 1 0 0 2 3 3 2 2 2 1 0 1 2 3 3 3 2 1 0 0 0 0 0 0 0 0 0 0 0 0 0 0 0 0 0 0 0 0 0 0 0
3 3 2 1 0 1 2 3 3 3 3 2 0 0 1 1 2 3 2 1 0 0 0 0 0 0 0 0 0 0 0 0 0 0 0 0 0 0 0 0 0 0 0
3 3 2 1 0 0 1 3 3 3 3 1 0 0 0 0 1 2 2 1 0 0 0 0 0 0 0 0 0 0 0 0 0 0 0 0 0 0 0 0 0 0 0
Wind_Speed
1 1 3 5 6 7 8 8 8 8 8 8 9 9 9 9 9 9 9 9 9 9 9 9 9 10 10 11 11 11 11 11 11 11 11 11 11 11 11 11 10 6 11
2 1 4 5 6 7 8 8 8 8 8 8 8 9 9 8 9 9 9 9 9 9 9 9 9 10 10 10 10 10 10 11 11 11 10 9 10 10 11 10 9 7 10
3 2 4 5 6 7 7 8 8 8 8 8 8 8 8 8 8 8 8 9 9 9 9 9 9 9 10 10 10 11 11 11 11 10 9 5 5 10 10 10 9 10 10
4 3 3 5 6 7 7 7 8 8 8 8 8 8 8 8 8 8 8 8 8 9 8 9 9 9 9 9 9 10 10 10 10 9 5 4 4 8 9 9 9 9 9
4 3 3 6 6 7 7 7 8 8 8 8 8 8 8 8 8 8 8 8 9 9 9 8 9 9 9 9 9 9 9 10 10 8 5 4 4 7 9 9 8 8 8
4 3 3 6 7 7 7 7 7 7 7 8 8 8 8 8 8 8 8 8 8 8 8 8 8 8 8 8 8 9 9 9 7 5 4 4 3 6 7 7 7 7 7
4 3 3 6 6 7 7 7 7 7 7 7 7 8 7 7 7 8 8 8 8 8 8 8 7 7 7 8 8 8 8 8 5 4 3 3 3 6 6 7 7 6 6
4 3 3 5 6 6 7 7 7 7 7 7 7 7 7 6 6 7 7 7 7 7 8 7 6 6 6 7 7 7 7 6 5 3 3 2 4 5 6 6 6 6 6
4 3 3 3 4 5 6 6 7 7 7 7 7 7 7 6 6 6 6 7 7 7 7 7 7 7 6 7 7 8 8 7 4 2 3 2 4 4 4 5 5 5 5
3 3 3 3 3 3 3 6 7 7 7 7 7 7 7 6 6 7 6 6 6 6 6 6 6 7 7 7 7 8 7 6 3 3 2 2 4 4 4 4 4 4 5
3 2 2 3 3 3 3 4 5 6 7 7 6 7 6 4 4 4 5 6 6 6 6 6 6 7 7 6 7 7 6 2 3 2 2 3 3 3 4 4 4 4 4
3 1 1 2 3 2 2 3 2 3 3 4 3 4 3 3 3 4 6 6 6 6 6 6 7 6 5 3 4 5 2 3 3 2 2 4 4 4 4 4 4 4 4
4 2 2 2 2 3 2 2 2 2 2 3 3 3 3 2 2 3 2 3 4 5 4 4 4 3 2 2 2 2 2 2 2 2 3 5 4 5 4 4 3 3 3
3 3 2 2 2 2 2 1 2 1 1 1 2 2 2 2 2 2 2 2 2 2 2 2 2 3 3 3 3 2 3 2 2 2 3 6 5 5 4 4 4 3 3
4 3 2 2 2 2 2 1 2 1 1 1 1 1 2 2 1 1 1 1 2 2 2 2 2 2 2 2 2 2 2 2 2 2 2 6 6 6 5 4 4 5 5
4 4 3 3 2 2 2 1 1 1 1 1 1 1 2 1 1 1 1 1 1 1 1 1 1 2 2 1 2 2 1 1 2 2 2 4 6 6 5 5 5 4 4
4 3 3 3 2 2 2 2 1 1 1 1 1 1 1 1 1 1 1 1 1 1 1 1 2 2 2 2 2 2 1 1 1 1 2 2 3 5 6 5 5 4 4
3 4 4 3 3 3 2 2 1 1 1 1 0 0 1 1 1 1 1 1 1 1 1 1 1 1 1 2 2 2 2 2 1 1 1 1 1 2 4 6 6 5 5
4 3 4 3 4 3 3 2 1 1 1 1 1 0 0 1 1 1 0 0 0 1 1 1 1 1 1 1 1 2 2 1 1 1 0 1 1 1 2 4 6 6 5
2 2 3 3 3 3 2 2 1 1 0 0 1 1 1 0 0 1 0 0 0 1 1 1 0 1 0 1 1 2 2 2 1 1 1 0 1 1 1 2 2 3 6
1 2 2 3 2 2 2 2 2 2 1 1 1 1 1 1 1 1 0 0 1 1 1 1 0 1 1 1 1 2 2 1 1 1 1 0 1 1 1 1 1 1 2
2 3 3 3 3 3 2 2 2 2 1 2 1 1 1 1 1 1 1 1 1 1 0 1 1 0 0 0 0 1 2 3 2 1 1 1 1 1 1 1 1 1 1
3 3 3 3 3 3 2 2 1 1 0 0 1 1 1 2 2 1 2 2 2 2 2 2 2 2 1 1 0 1 1 2 2 2 1 1 1 1 1 1 1 1 1
4 3 2 3 3 3 3 3 4 3 3 3 2 2 2 2 2 2 2 2 2 2 2 2 2 2 2 2 1 1 1 1 1 2 2 1 1 1 1 1 1 1 1
2 2 2 2 2 3 3 4 4 3 3 2 1 2 2 2 2 2 2 2 2 2 2 2 2 2 2 3 2 1 1 1 1 2 3 2 2 2 2 2 2 1 1
1 1 1 2 2 3 3 4 4 5 3 2 2 2 2 1 1 2 2 2 2 2 3 3 3 3 3 3 2 2 2 2 2 2 2 2 3 3 2 2 2 2 2
Wind_Direction
230 231 131 113 108 102 97 94 90 91 90 87 87 86 82 77 74 72 69 66 67 68 68 69 70 70 70 67 67 65 64 63 64 64 62 65 68 71 73 71 65 67 74
157 153 124 115 110 106 100 95 92 91 90 88 85 85 83 79 76 73 70 66 65 65 66 68 70 70 69 68 67 66 67 64 62 60 56 54 63 69 71 71 68 71 75
120 126 129 117 115 110 105 97 91 89 89 88 84 81 79 78 77 75 71 66 62 61 64 69 70 68 67 67 66 65 65 63 62 58 51 35 49 67 69 70 70 72 74
114 114 118 118 120 114 106 99 94 89 86 86 84 80 78 76 74 74 71 68 64 60 62 69 67 67 67 66 67 67 66 64 60 54 44 33 39 66 68 68 71 74 74
94 96 111 110 116 111 105 102 98 92 88 87 85 80 77 75 72 72 69 67 65 62 63 66 69 69 69 67 68 70 70 65 56 46 39 32 34 62 67 66 69 72 74
86 85 105 103 108 105 99 97 97 92 89 88 87 80 76 74 74 71 68 66 64 64 64 66 69 70 71 68 70 72 71 65 53 42 32 26 29 59 69 68 68 75 74
97 92 106 100 104 104 101 97 94 88 85 84 83 80 76 73 71 72 70 68 69 68 66 65 68 71 71 71 71 71 71 64 58 47 31 21 33 56 67 69 68 72 74
102 99 104 104 98 97 97 95 91 86 81 77 77 77 74 72 72 73 72 68 69 69 64 62 66 68 72 73 72 68 65 62 57 43 31 25 42 57 63 65 66 66 67
84 85 76 92 92 88 86 83 84 83 79 74 71 70 67 65 65 65 68 68 68 68 66 62 64 67 66 70 70 66 61 56 54 37 28 20 38 54 62 63 65 65 60
76 75 74 71 73 80 92 79 74 71 71 69 64 60 58 55 56 54 58 65 64 62 61 60 61 60 59 64 67 63 55 48 40 35 18 19 38 50 61 69 67 67 61
87 66 76 83 73 68 81 75 72 67 62 62 60 57 53 44 41 40 47 55 56 58 55 56 57 56 52 53 59 56 50 39 33 20 4 23 37 48 64 67 66 59 53
156 126 98 107 102 86 78 77 69 64 60 55 53 51 49 47 43 44 42 46 47 48 50 48 47 47 47 39 44 46 41 38 35 9 7 21 35 49 60 62 62 56 55
176 166 133 133 130 114 98 90 75 68 61 56 51 50 53 49 43 42 37 31 33 38 41 37 35 34 45 45 40 38 39 42 28 5 7 22 34 37 42 50 52 57 52
171 178 159 143 136 125 118 114 100 85 71 57 45 48 58 54 42 38 42 30 30 30 38 37 38 29 41 44 42 38 37 40 26 5 9 24 28 31 31 37 41 46 49
179 182 180 157 139 131 123 129 103 107 101 77 56 42 58 73 54 41 38 39 36 40 44 35 33 30 31 35 34 35 31 31 25 18 4 19 22 29 33 33 31 28 34
188 187 180 172 153 129 130 143 134 128 111 96 75 41 49 70 74 57 42 38 29 38 52 54 30 26 19 22 21 17 12 13 23 27 16 6 15 24 28 27 19 14 17
190 183 182 179 159 144 149 157 138 134 122 114 104 68 55 62 71 67 55 36 10 28 57 65 47 43 34 22 10 1 3 12 18 26 25 11 359 12 21 21 12 3 1
184 185 188 183 174 173 170 163 152 138 133 130 115 94 72 67 79 86 69 3 352 40 69 72 60 41 30 16 359 350 349 357 355 359 29 29 12 3 4 14 6 360 355
190 189 188 186 183 183 173 162 152 140 140 152 130 115 108 109 100 111 118 336 23 62 53 62 47 39 21 2 342 336 335 323 316 326 1 31 26 12 357 358 358 356 355
189 185 191 190 186 174 160 147 126 110 120 137 161 180 165 130 98 117 123 71 81 85 49 62 83 32 16 334 339 335 318 302 307 303 278 311 348 353 4 355 347 345 357
169 173 187 185 189 171 169 174 176 199 210 227 217 199 181 149 148 150 176 159 141 163 202 174 121 58 357 351 359 332 317 296 288 289 278 295 318 311 355 347 346 360 347
197 201 196 197 193 194 193 185 176 174 200 214 224 210 204 192 186 189 190 203 191 174 170 184 159 151 336 10 109 360 325 325 328 318 307 271 294 315 331 332 337 346 347
207 215 212 208 202 205 189 152 123 100 62 223 238 236 228 212 204 204 207 205 197 188 201 209 193 182 208 264 265 166 183 252 311 310 292 297 303 312 295 281 273 297 308
221 220 216 209 208 211 188 179 181 195 215 225 221 224 232 218 214 214 214 213 206 199 199 214 215 204 187 210 244 259 223 199 214 300 308 311 308 298 284 290 290 284 285
223 218 220 204 210 213 202 197 198 217 225 222 211 215 233 235 225 221 218 214 214 208 204 205 213 213 203 204 202 210 218 252 218 211 275 302 313 289 273 264 258 266 281
216 213 217 211 224 221 211 207 208 219 224 220 227 224 232 243 245 234 217 217 220 217 214 214 213 210 214 212 212 205 194 198 210 202 236 274 288 290 290 272 251 251 258